Regional Weather Roundup
Issued by NWS

Home | Current Version | Previous Version | Graphics & Text | Print | Product List | Glossary Off
Versions: 1 2 3 4 5 6 7 8 9 10 11 12 13 14 15 16 17 18 19 20 21 22 23 24 25 26 27 28 29 30 31 32 33 34 35 36 37 38 39 40 41 42 43 44 45 46 47 48 49 50

857
ASUS43 KMKX 260711
RWRWI

WISCONSIN REGIONAL WEATHER ROUNDUP
NATIONAL WEATHER SERVICE MILWAUKEE/SULLIVAN WI
200 AM CDT WED APR 26 2017

NOTE: "FAIR" INDICATES FEW OR NO CLOUDS BELOW 12,000 FEET WITH NO
SIGNIFICANT WEATHER AND/OR OBSTRUCTIONS TO VISIBILITY.

WIZ001-002-006>008-014>016-023>028-260800-
NORTHWEST WISCONSIN

CITY           SKY/WX    TMP DP  RH WIND       PRES   REMARKS
SUPERIOR ARPT  DRIZZLE   35  34  96 E17G25    29.71S WCI  25
ASHLAND        MIX PCPN  32  30  92 NE20      29.73F WCI  20
HAYWARD        CLOUDY    34  31  88 NE17G25   29.63F WCI  23
SIREN          CLOUDY    36  34  93 NE14G23   29.60F WCI  27
CUMBERLAND     CLOUDY    37  36  93 NE14G21   29.56F WCI  29
RICE LAKE      CLOUDY    41  39  94 N10       29.57F
CHETEK         RAIN      41  40  97 NE9G16    29.54F
LADYSMITH      LGT RAIN  42  40  93 N8        29.58F
EAU CLAIRE     LGT RAIN  47  46  97 NE13      29.48F
MENOMONIE      RAIN      46  46  97 N9        29.50F
NEW RICHMOND   RAIN      43  41  95 NE16      29.51F
OSCEOLA        LGT RAIN  42  42 100 NE12      29.56F
$$

WIZ003>005-009-010-017-018-260800-
NORTH CENTRAL WISCONSIN

CITY           SKY/WX    TMP DP  RH WIND       PRES   REMARKS
MANITOWISH WTR RAIN      34  34 100 N6        29.63F WCI  28
ARBOR VITAE    RAIN      38  37  95 NE8       29.61F WCI  32
WOODRUFF       RAIN      38  37  95 NE8       29.61F WCI  32
RHINELANDER    RAIN      46  46 100 N9        29.58F FOG
EAGLE RIVER    LGT RAIN  40  40 100 NE14      29.60F WCI  32
LAND O LAKES   RAIN      37  37  99 NE9       29.64F WCI  30
PHILLIPS       LGT RAIN  37  37 100 NE18G25   29.58F WCI  26
TOMAHAWK       HVY RAIN  45  44  95 NE8       29.56F
MEDFORD        CLOUDY    52  50  94 NE9       29.51F
MERRILL        CLOUDY    54  54 100 E5        29.54F
$$

WIZ029-030-035-036-043>047-260800-
CENTRAL WISCONSIN

CITY           SKY/WX    TMP DP  RH WIND       PRES   REMARKS
WAUSAU         LGT RAIN  55  53  93 E9        29.50F
MOSINEE        RAIN      55  54  94 E9        29.51F
MARSHFIELD     CLOUDY    56  51  84 NE10      29.48F
STEVENS POINT  LGT RAIN  59  53  80 E13G18    29.50S
WAUPACA        DRIZZLE   62  54  75 E10       29.51S
WAUTOMA        LGT RAIN  62  55  77 SE7       29.49S
WISC RAPIDS    LGT RAIN  60  54  80 E3        29.49S
CAMP DOUGLAS   CLOUDY    55  52  89 CALM      29.46F
$$

WIZ011>013-019>022-031-037>040-048>050-260800-
NORTHEAST WISCONSIN

CITY           SKY/WX    TMP DP  RH WIND       PRES   REMARKS
ANTIGO         LGT RAIN  51  51  98 E16G22    29.54F
SHAWANO        LGT RAIN  55  51  89 E9        29.55F
OCONTO         CLOUDY    49  46  87 NE7       29.57F
STURGEON BAY   CLOUDY    52  47  83 E7        29.58F
GREEN BAY      LGT RAIN  54  54 100 NE12      29.54F
MANITOWOC      MOCLDY    54  49  83 E3        29.55F
APPLETON       CLOUDY    57  50  77 E9        29.50F
CLINTONVILLE   LGT RAIN  54  52  94 NE9       29.52F
OSHKOSH        CLOUDY    61  52  72 SE10      29.50F
$$

WIZ032>034-041-042-053>061-260800-
SOUTHWEST WISCONSIN

CITY           SKY/WX    TMP DP  RH WIND       PRES   REMARKS
LA CROSSE      LGT RAIN  57  55  93 CALM      29.44F
SPARTA         DRIZZLE   54  54  99 CALM      29.47F
VIROQUA        CLOUDY    55  54  94 E5        29.46F
BOSCOBEL       CLOUDY    59  57  93 NE5       29.43F
PRAIRIE DU CHI CLOUDY    58  56  95 E3        29.42F
PLATTEVILLE    CLOUDY    61  56  86 E8        29.44F
$$

WIZ056-057-062-063-064-067-068-260800-
SOUTH CENTRAL WISCONSIN

CITY           SKY/WX    TMP DP  RH WIND       PRES   REMARKS
REEDSBURG      CLOUDY    61  53  75 S5        29.47S
BARABOO/DELLS  CLOUDY    63  50  64 S8        29.47S
LONE ROCK      CLOUDY    60  55  83 NE5       29.45F
MINERAL POINT  CLOUDY    61  55  82 CALM      29.45F
MADISON        LGT RAIN  64  52  64 SE7       29.47S
MIDDLETON      CLOUDY    65  54  66 S7        29.48S
WATERTOWN      CLOUDY    62  54  74 SE7       29.49S
MONROE         MOCLDY    64  52  63 S7        29.46F
JANESVILLE     CLOUDY    66  52  59 S9        29.47F
$$

WIZ051-052-058>065-066-070>072-260800-
SOUTHEAST WISCONSIN

CITY           SKY/WX    TMP DP  RH WIND       PRES   REMARKS
MILWAUKEE      CLOUDY    57  51  80 SE8       29.52F
WAUKESHA       CLOUDY    59  50  72 SE8       29.53S
MILWAUKEE/TIMM CLOUDY    59  48  67 SE8       29.53F
RACINE         CLOUDY    55  48  77 S10       29.54F
KENOSHA        CLOUDY    61  51  70 SE7       29.52F
FOND DU LAC    CLOUDY    62  51  67 SE13      29.49F
SHEBOYGAN      CLOUDY    57  51  80 E3        29.54F
WEST BEND      CLOUDY    59  52  77 SE6       29.52F
JUNEAU         LGT RAIN  62  53  72 SE10      29.51S
$$

LSZ147-162-260800-
LAKE SUPERIOR

STATION/POSITION TIME  TEMP    WIND        PRES    WAVE
                       AIR SEA DIR/SP/G            HT/PER
                 (UTC) (F)     (DEG/KT/KT) (MB)    (FT/S)
DEVILS ISLAND    0700   32      50/ 27/ 30 1008.2F
SAXON HARBOR     0630   35      40/ 23/ 29 1006.4F
$$

LMZ867-665-643>646-260800-
LAKE MICHIGAN

STATION/POSITION TIME  TEMP    WIND        PRES    WAVE
                       AIR SEA DIR/SP/G            HT/PER
                 (UTC) (F)     (DEG/KT/KT) (MB)    (FT/S)
CHAMBERS ISLAND  0640   41      20/ 10/ 12 1002.4F
N MID LAKE BUOY  0650   41 37   80/ 10/ 10 1003.8F   2/ 4
NORTHPORT PIER   0640   45      70/  3/  5 1003.0F
SISTER BAY       0606   47     110/  5/  7   N/A
KEWAUNEE LAKESHO 0648   49     120/  6/ 10 1001.2F
SHEBOYGAN LAKESH 0700   49     140/  9/ 12  999.8F
PORT WASHINGTON  0640   55     180/  6/ 11 1001.0F
MILWAUKEE LAKESH 0650   50     170/  7/  7   N/A
S MID LAKE BUOY  0550   49 41   90/ 12/ 14 1001.7F   1
KENOSHA   LAKESH 0700   52     170/ 10/ 12 1000.0
$$

TC  - TEMPERATURE IN CELSIUS
VSB - VISIBILITY IN STATUTE MILES
WCI - WIND CHILL INDEX
HX  - HEAT INDEX





USA.gov is the U.S. government's official web portal to all federal, state and local government web resources and services.